{"data":{"norad_id":45670,"intl_designator":"2020-035P","name":"STARLINK-1453","alt_names":[],"object_type":"PAYLOAD","status":"ACTIVE","operator":null,"country":"US","launch_date":"2020-06-04","launch_site_code":"AFETR","launch_vehicle":null,"mission":null,"orbit_class":"UNKNOWN","rcs_meters":null,"size_class":null,"mass_kg":null,"dimensions":null,"purposes":["comms"],"wikipedia_slug":null,"has_3d_model":false,"image_url":null,"decayed_at":null,"tle_current":{"epoch":"2026-05-25T02:28:51.795264Z","epoch_age_seconds":73069,"freshness":"FRESH","line1":"1 45670U 20035P   26145.10337726  .00056076  00000+0  52487-3 0  9991","line2":"2 45670  53.0415   0.6846 0002396 148.7776 211.3382 15.66714207331305","mean_motion":15.66714207,"eccentricity":0.0002396,"inclination_deg":53.0415,"raan_deg":0.6846,"arg_perigee_deg":148.7776,"mean_anomaly_deg":211.3382,"bstar":0.00052487,"rev_number":33130,"period_min":91.912104553986,"perigee_km":366.69677130582,"apogee_km":369.92967025162,"semimajor_km":6746.4502207787,"source":"CELESTRAK","updated_at":"2026-05-25T13:38:16.427400Z"}}}